Effective Sunday, March 17, 2024, the National Weather Service National Data Buoy Center will discontinue its Dial-A-Buoy Interactive Voice Response system. For more information, see Service Change Notice 24-06 (PDF).

Station PRDA2 - 9497645 - Prudhoe Bay, AK Image indicating link to RSS feed of recent meteorological observations for station PRDA2


Conditions at PRDA2 as of
(5:00 pm AKST on 02/23/2024)
0200 GMT on 02/24/2024:
     

Click on the graph icon in the table below to see a time series plot of the last five days of that observation.

5-day plot - Wind Direction Wind Direction (WDIR): NE ( 50 deg true )
5-day plot - Wind Speed Wind Speed (WSPD): 19.0 kts
5-day plot - Wind Gust Wind Gust (GST): 20.0 kts
5-day plot - Atmospheric Pressure Atmospheric Pressure (PRES):30.11 in
5-day plot - Pressure Tendency Pressure Tendency (PTDY):+0.01 in ( Rising )
5-day plot - Air Temperature Air Temperature (ATMP):-15.7 °F
5-day plot - Water Temperature Water Temperature (WTMP): 28.6 °F
5-day plot - Wind Chill Wind Chill (CHILL):-43.6 °F
5-day plot - Wind Speed at 10 Meters Wind Speed at 10 meters (WSPD10M): 19.4 kts
5-day plot - Wind Speed at 20 Meters Wind Speed at 20 meters (WSPD20M): 21.4 kts
5-day plot -  Wind Speed, Wind Gust and Atmospheric Pressure Combined plot of Wind Speed, Gust, and Air Pressure
NOS Water Level Observation Network Water Level
Previous observations
TIME
(AKST)
5-day plot - Wind Direction
WDIR
 
5-day plot - Wind Speed
WSPD
kts
5-day plot - Wind Gust
GST
kts
5-day plot - Wave Height
WVHT
ft
5-day plot - Dominant Wave Period
DPD
sec
5-day plot - Average Wave Period
APD
sec
5-day plot - Mean Wave Direction
MWD
 
5-day plot - Atmospheric Pressure
PRES
in
5-day plot - Pressure Tendency
PTDY
in
5-day plot - Air Temperature
ATMP
°F
5-day plot - Water Temperature
WTMP
°F
5-day plot - Dew Point
DEWP
°F
5-day plot - Salinity
SAL
psu
5-day plot - Visibility
VIS
nmi
5-day plot - Tide (above MLLW)
TIDE
ft
2024-02-23 04:54 pm NE 19.0 21.0----30.11--15.7 28.6----
2024-02-23 04:48 pm NE 20.0 21.0----30.11--15.5 28.6----
2024-02-23 04:42 pm NE 19.0 20.0----30.11--15.5 28.6----
2024-02-23 04:36 pmENE 18.1 19.0----30.11--15.5 28.6----
2024-02-23 04:30 pmENE 18.1 19.0----30.11-------
2024-02-23 04:24 pmENE 17.1 19.0----30.11-------
2024-02-23 04:18 pmENE 17.1 19.0----30.11-- 28.6----
2024-02-23 04:12 pmENE 19.0 20.0----30.11-- 28.6----
2024-02-23 04:06 pmENE 18.1 19.0----30.10-- 28.6----
2024-02-23 04:00 pmENE 18.1 19.0----30.10+0.02- 28.6----
2024-02-23 03:54 pmENE 19.0 21.0----30.10-- 28.6----
2024-02-23 03:48 pmENE 19.0 21.0----30.10-- 28.6----
2024-02-23 03:42 pmENE 19.0 20.0----30.10-- 28.6----
2024-02-23 03:36 pm NE 19.0 20.0----30.10-- 28.6----
2024-02-23 03:30 pm NE 18.1 19.0----30.10-- 28.6----
2024-02-23 03:24 pmENE 18.1 19.0----30.10-- 28.6----
2024-02-23 03:18 pmENE 18.1 19.0----30.10-- 28.6----
2024-02-23 03:12 pm NE 19.0 20.0----30.10-- 28.6----
2024-02-23 03:06 pm NE 18.1 20.0----30.10-- 28.6----
2024-02-23 03:00 pm NE 18.1 19.0----30.09+0.02------
2024-02-23 02:54 pm NE 18.1 19.0----30.09-------
2024-02-23 02:48 pm NE 18.1 19.0----30.09--15.5 28.6----
2024-02-23 02:42 pm NE 17.1 19.0----30.09--15.5 28.6----
2024-02-23 02:36 pm NE 17.1 18.1-------15.5-----
2024-02-23 02:30 pm NE 17.1 18.1----30.09--15.5 28.6----
2024-02-23 02:24 pmENE 15.9 19.0----30.09--15.7 28.6----
2024-02-23 02:18 pmENE 18.1 19.0----30.09-- 28.6----
2024-02-23 02:12 pmENE 17.1 18.1----30.09-- 28.6----
2024-02-23 02:06 pmENE 15.9 19.0----30.09-- 28.6----
2024-02-23 02:00 pmENE 15.9 18.1----30.09+0.03-15.7 28.6----
2024-02-23 01:54 pmENE 15.0 17.1----30.09--15.7 28.6----
2024-02-23 01:48 pmENE 15.0 15.9----30.09--15.9 28.6----
2024-02-23 01:42 pmENE 15.0 15.9----30.09--15.9 28.6----
2024-02-23 01:36 pmENE 15.0 17.1----30.09--15.9 28.6----
2024-02-23 01:30 pmENE 15.0 15.9----30.09--15.9 28.6----
2024-02-23 01:24 pmENE 14.0 15.9----30.09--16.1 28.6----
2024-02-23 01:18 pmENE 15.0 15.9----30.09--16.1 28.6----
2024-02-23 01:12 pm NE 15.9 17.1----30.09--16.1 28.6----
2024-02-23 01:06 pm NE 17.1 17.1----30.08--16.2 28.6----
2024-02-23 01:00 pm NE 15.9 18.1----30.08+0.03-16.2 28.6----
2024-02-23 12:54 pmENE 15.9 17.1----30.08--16.2 28.6----
2024-02-23 12:48 pmENE 15.9 18.1----30.08--16.2 28.6----
2024-02-23 12:42 pmENE 15.9 17.1----30.08--16.2 28.6----
2024-02-23 12:36 pmENE 15.9 18.1----30.08--16.4 28.6----
2024-02-23 12:30 pmENE 15.9 17.1----30.08--16.4 28.6----
2024-02-23 12:24 pm NE 15.9 17.1----30.08--16.4 28.6----
2024-02-23 12:18 pm NE 15.9 17.1----30.08--16.4 28.6----
2024-02-23 12:12 pm NE 15.0 15.9----30.08--16.6 28.6----
2024-02-23 12:06 pmENE 14.0 15.9----30.07--16.6 28.6----
2024-02-23 12:00 pmENE 14.0 15.9----30.07+0.03-16.6 28.6----
2024-02-23 11:54 amENE 15.0 15.0----30.07--16.8 28.6----
2024-02-23 11:48 amENE 15.0 15.9----30.07--16.8 28.6----
2024-02-23 11:42 am NE 15.0 15.9----30.07--16.8 28.6----
2024-02-23 11:36 am NE 15.9 17.1----30.07--17.0 28.6----
2024-02-23 11:30 am NE 15.0 17.1----30.07--17.0 28.6----
2024-02-23 11:24 am NE 15.0 15.9----30.07--17.1 28.6----
2024-02-23 11:18 am NE 15.0 15.9----30.06--17.1 28.6----
2024-02-23 11:12 am NE 15.9 17.1----30.06--17.1 28.6----
2024-02-23 11:06 am NE 15.0 15.9----30.06--17.1 28.6----
2024-02-23 11:00 am NE 15.9 17.1----30.06+0.04-17.1 28.6----
2024-02-23 10:54 am NE 15.9 17.1----30.06--17.3 28.6----
2024-02-23 10:48 am NE 15.9 17.1----30.06--17.3 28.6----
2024-02-23 10:42 am NE 15.9 17.1----30.06--17.3 28.6----
2024-02-23 10:36 am NE 15.9 17.1-------17.5-----
2024-02-23 10:30 amENE 15.9 17.1----30.06--17.5 28.6----
2024-02-23 10:24 amENE 15.9 17.1----30.06--17.7 28.6----
2024-02-23 10:18 amENE 15.9 15.9----30.06--17.5 28.6----
2024-02-23 10:12 amENE 15.9 17.1----30.06--17.5 28.6----
2024-02-23 10:06 amENE 15.9 17.1----30.06--17.5 28.6----
2024-02-23 10:00 amENE 15.9 15.9----30.06+0.04-17.5 28.6----
2024-02-23 09:54 amENE 15.9 17.1----30.05--17.5 28.6----
2024-02-23 09:48 amENE 15.9 17.1----30.05--17.7 28.6----
2024-02-23 09:42 amENE 15.9 17.1----30.05--17.7 28.6----
2024-02-23 09:36 amENE 15.9 17.1----30.05--17.7 28.6----
2024-02-23 09:30 amENE 15.9 17.1----30.05--17.7 28.6----
2024-02-23 09:24 amENE 15.9 17.1----30.04--17.7 28.6----
2024-02-23 09:18 amENE 15.9 17.1----30.04--17.5 28.6----
2024-02-23 09:12 amENE 17.1 18.1----30.04--17.5 28.6----
2024-02-23 09:06 amENE 17.1 18.1----30.04--17.5 28.6----
2024-02-23 09:00 amENE 17.1 17.1----30.04+0.04-17.5 28.6----
2024-02-23 08:54 amENE 17.1 18.1----30.04--17.5 28.6----
2024-02-23 08:48 amENE 17.1 18.1-------17.5-----
2024-02-23 08:42 amENE 17.1 18.1----30.03--17.3 28.6----
2024-02-23 08:36 amENE 17.1 19.0----30.03--17.3 28.6----
2024-02-23 08:30 amENE 17.1 18.1----30.03--17.3 28.6----
2024-02-23 08:24 amENE 17.1 18.1----30.03--17.3 28.6----
2024-02-23 08:18 amENE 17.1 19.0----30.03--17.1 28.6----
2024-02-23 08:12 amENE 18.1 19.0----30.03--17.1 28.6----
2024-02-23 08:06 amENE 18.1 19.0----30.03--17.1 28.6----
2024-02-23 08:00 amENE 18.1 19.0----30.03+0.04-17.0 28.6----
2024-02-23 07:54 amENE 18.1 20.0----30.03--17.0 28.6----
2024-02-23 07:48 amENE 19.0 20.0----30.02--16.8 28.6----
2024-02-23 07:42 amENE 19.0 19.0----30.02--16.8 28.6----
2024-02-23 07:36 amENE 19.0 20.0----30.02--16.8 28.6----
2024-02-23 07:30 am NE 19.0 20.0----30.02--16.6 28.6----
2024-02-23 07:24 amENE 19.0 20.0----30.02--16.6 28.6----
2024-02-23 07:18 am NE 19.0 19.0----30.02--16.6 28.6----
2024-02-23 07:12 am NE 18.1 19.0----30.02--16.6 28.6----
2024-02-23 07:06 am NE 19.0 20.0----30.02--16.2 28.6----
2024-02-23 07:00 am NE 18.1 20.0----30.02--16.4 28.6----
2024-02-23 06:54 am NE 19.0 20.0----30.01--16.2 28.6----
2024-02-23 06:48 am NE 18.1 19.0----30.01--16.2 28.6----
2024-02-23 06:42 am NE 18.1 19.0----30.01--16.1 28.6----
2024-02-23 06:36 am NE 17.1 18.1----30.01--15.9 28.6----
2024-02-23 06:30 am NE 17.1 18.1----30.01--15.7 28.6----
2024-02-23 06:24 amENE 17.1 19.0----30.01--15.5 28.6----
2024-02-23 06:18 amENE 18.1 19.0----30.01--15.5 28.6----
2024-02-23 06:12 am NE 18.1 19.0-------15.3-----
2024-02-23 06:06 am NE 18.1 19.0----30.00--15.3 28.6----
2024-02-23 06:00 amENE 18.1 19.0----30.00--15.3 28.6----
2024-02-23 05:54 am NE 17.1 19.0----30.00--15.2 28.6----
2024-02-23 05:48 amENE 19.0 20.0----29.99--14.8 28.6----
2024-02-23 05:42 amENE 18.1 19.0----29.99--14.8 28.6----
2024-02-23 05:36 amENE 18.1 19.0----29.99--14.8 28.6----
2024-02-23 05:30 amENE 19.0 20.0----29.99--14.6 28.6----
2024-02-23 05:24 amENE 19.0 20.0----29.99--14.6 28.6----
2024-02-23 05:18 amENE 20.0 21.0----29.98--14.4 28.6----
2024-02-23 05:12 amENE 20.0 21.0----29.98--14.3 28.6----
2024-02-23 05:06 amENE 19.0 20.0----29.98--14.3 28.6----
2024-02-23 05:00 amENE 18.1 20.0----29.98+0.04-14.3 28.6----
2024-02-23 04:54 amENE 19.0 21.0----29.98--13.9 28.6----
2024-02-23 04:48 amENE 18.1 20.0----29.98--13.7 28.6----
2024-02-23 04:42 amENE 18.1 20.0----29.98--13.7 28.6----
2024-02-23 04:36 amENE 18.1 19.0----29.98--13.5 28.6----
2024-02-23 04:30 amENE 19.0 20.0----29.98--13.5 28.6----
2024-02-23 04:24 amENE 18.1 20.0----29.98--13.5 28.6----
2024-02-23 04:18 amENE 18.1 19.0----29.98--13.4 28.6----
2024-02-23 04:12 amENE 19.0 19.0----29.97--13.4 28.6----
2024-02-23 04:06 amENE 17.1 21.0----29.97--13.4 28.6----
2024-02-23 04:00 amENE 20.0 21.0-------13.2-----
2024-02-23 03:54 amENE 19.0 21.0----29.97--13.2 28.6----
2024-02-23 03:48 amENE 19.0 20.0----29.97--13.0 28.6----
2024-02-23 03:42 amENE 18.1 19.0----29.97--13.0 28.6----
2024-02-23 03:36 amENE 19.0 21.0----29.96--12.8 28.6----
2024-02-23 03:30 amENE 19.0 21.0----29.96--12.8 28.6----
2024-02-23 03:24 amENE 19.0 20.0----29.96--12.8 28.6----
2024-02-23 03:18 amENE 18.1 20.0----29.96--12.6 28.6----
2024-02-23 03:12 amENE 20.0 21.0----29.96--12.6 28.6----
2024-02-23 03:06 amENE 19.0 20.0----29.96--12.6 28.6----
2024-02-23 03:00 amENE 19.0 20.0-------12.6-----
2024-02-23 02:54 amENE 19.0 20.0----29.96--12.6 28.6----
2024-02-23 02:48 amENE 18.1 19.0----29.96--12.5 28.6----
2024-02-23 02:42 amENE 17.1 19.0----29.96--12.5 28.6----
2024-02-23 02:36 amENE 19.0 22.0----29.95--12.5 28.6----
2024-02-23 02:30 amENE 20.0 21.0----29.95--12.3 28.6----
2024-02-23 02:24 amENE 19.0 20.0----29.95--12.3 28.6----
2024-02-23 02:18 amENE 19.0 21.0----29.95--12.3 28.6----
2024-02-23 02:12 amENE 19.0 21.0----29.95--12.3 28.6----
2024-02-23 02:06 amENE 19.0 21.0----29.94--12.3 28.6----
2024-02-23 02:00 amENE 21.0 24.1----29.94+0.09-12.1 28.6----
2024-02-23 01:54 amENE 22.0 24.1----29.93--12.1 28.6----
2024-02-23 01:48 amENE 22.0 24.1----29.93--12.1 28.6----
2024-02-23 01:42 amENE 20.0 24.1----29.93--12.1 28.6----
2024-02-23 01:36 amENE 22.0 22.9----29.93--12.1 28.6----
2024-02-23 01:30 amENE 21.0 22.9----29.93--12.1 28.6----
2024-02-23 01:24 amENE 22.0 25.1----29.93--11.9 28.6----
2024-02-23 01:18 amENE 22.0 24.1----29.92--11.9 28.6----
2024-02-23 01:12 amENE 22.9 24.1----29.92--11.9 28.6----
2024-02-23 01:06 amENE 24.1 26.0----29.91--11.9 28.6----
2024-02-23 01:00 amENE 24.1 25.1----29.91+0.09-11.9 28.6----
2024-02-23 12:54 amENE 22.9 25.1----29.91--11.7 28.6----
2024-02-23 12:48 amENE 22.0 24.1----29.91--11.6 28.6----
2024-02-23 12:42 amENE 22.9 25.1----29.91--11.6 28.6----
2024-02-23 12:36 amENE 24.1 25.1----29.90--11.4 28.6----
2024-02-23 12:30 amENE 22.9 26.0----29.90--11.4 28.6----
2024-02-23 12:24 amENE 22.9 27.0----29.90--11.4 28.6----
2024-02-23 12:18 amENE 22.9 25.1----29.89--11.2 28.6----
2024-02-23 12:12 amENE 22.9 27.0----29.89--11.2 28.6----
2024-02-23 12:06 amENE 22.9 25.1----29.89--11.2 28.6----
2024-02-23 12:00 amENE 25.1 28.0----29.89+0.09-11.0 28.6----
2024-02-22 11:54 pmENE 24.1 28.0----29.88--11.2 28.6----
2024-02-22 11:48 pmENE 26.0 29.9----29.88--11.0 28.6----
2024-02-22 11:42 pmENE 25.1 28.0----29.88--11.0 28.6----
2024-02-22 11:36 pmENE 26.0 28.9----29.87--11.0 28.6----
2024-02-22 11:30 pmENE 26.0 28.9----29.87--11.0 28.6----
2024-02-22 11:24 pmENE 25.1 28.0----29.86--10.8 28.6----
2024-02-22 11:18 pmENE 27.0 29.9----29.86--10.8 28.6----
2024-02-22 11:12 pmENE 27.0 31.1----29.86--10.8 28.6----
2024-02-22 11:06 pmENE 27.0 31.1----29.85--10.8 28.6----
2024-02-22 11:00 pmENE 28.0 31.1----29.85+0.09-10.8 28.6----
2024-02-22 10:54 pmENE 28.9 33.0----29.85--10.7 28.6----
2024-02-22 10:48 pmENE 28.9 32.1----29.85--10.7 28.6----
2024-02-22 10:42 pmENE 28.9 31.1----29.84--10.7 28.6----
2024-02-22 10:36 pmENE 28.0 32.1----29.84--10.7 28.6----
2024-02-22 10:30 pmENE 28.0 32.1----29.84--10.7 28.6----
2024-02-22 10:24 pmENE 28.9 32.1----29.83--10.7 28.6----
2024-02-22 10:18 pmENE 28.0 32.1----29.83--10.5 28.6----
2024-02-22 10:12 pmENE 29.9 32.1----29.83--10.5 28.6----
2024-02-22 10:06 pmENE 28.0 32.1----29.83--10.5 28.6----
2024-02-22 10:00 pmENE 28.9 33.0----29.82+0.08-10.3 28.6----
2024-02-22 09:54 pmENE 28.9 32.1----29.82--10.1 28.6----
2024-02-22 09:48 pmENE 28.0 32.1----29.82--10.1 28.6----
2024-02-22 09:42 pmENE 29.9 33.0----29.81--10.1 28.6----
2024-02-22 09:36 pmENE 28.9 32.1----29.81- -9.9 28.6----
2024-02-22 09:30 pmENE 28.0 34.0----29.81- -9.9 28.6----
2024-02-22 09:24 pmENE 29.9 33.0----29.80- -9.9 28.6----
2024-02-22 09:18 pmENE 29.9 33.0----29.80- -9.8 28.6----
2024-02-22 09:12 pmENE 29.9 34.0----29.80- -9.6 28.6----
2024-02-22 09:06 pmENE 28.9 34.0----29.80- -9.4 28.6----
2024-02-22 09:00 pmENE 32.1 34.0----29.80+0.08 -9.4 28.6----
2024-02-22 08:54 pmENE 31.1 36.9----29.79- -9.4 28.6----
2024-02-22 08:48 pmENE 31.1 35.0----29.78- -9.2 28.6----
2024-02-22 08:42 pmENE 33.0 35.9----29.78- -9.2 28.6----
2024-02-22 08:36 pmENE 32.1 36.9----29.78- -9.0 28.6----
2024-02-22 08:30 pmENE 34.0 36.9----29.78- -9.0 28.6----
2024-02-22 08:24 pmENE 34.0 38.1----29.77- -8.9 28.6----
2024-02-22 08:18 pmENE 31.1 35.9----29.77- -8.9 28.6----
2024-02-22 08:12 pmENE 33.0 35.9----29.77- -8.9 28.6----
2024-02-22 08:06 pmENE 32.1 35.9----29.77- -8.9 28.6----
2024-02-22 08:00 pmENE 34.0 39.0----29.76+0.06 -8.9 28.6----
2024-02-22 07:54 pmENE 34.0 36.9----29.76- -9.0 28.6----
2024-02-22 07:48 pmENE 33.0 35.9----29.76- -8.7 28.6----
2024-02-22 07:42 pmENE 33.0 36.9----29.76- -8.7 28.6----
2024-02-22 07:36 pmENE 32.1 35.9----29.75- -8.7 28.6----
2024-02-22 07:30 pmENE 32.1 38.1----29.75- -8.5 28.6----
2024-02-22 07:24 pmENE 34.0 38.1----29.75- -8.5 28.6----
2024-02-22 07:18 pmENE 33.0 36.9----29.75- -8.7 28.6----
2024-02-22 07:12 pmENE 32.1 35.9----29.74- -8.5 28.6----
2024-02-22 07:06 pmENE 34.0 38.1----29.74- -8.5 28.6----
2024-02-22 07:00 pmENE 35.9 39.0----29.74+0.05 -8.3 28.6----
2024-02-22 06:54 pmENE 32.1 34.0----29.74- -8.3 28.6----
2024-02-22 06:48 pmENE 32.1 36.9----29.74- -8.3 28.6----
2024-02-22 06:42 pmENE 32.1 35.9----29.73- -8.1 28.6----
2024-02-22 06:36 pmENE 33.0 35.9----29.73- -8.1 28.6----
2024-02-22 06:30 pmENE 34.0 38.1----29.73- -8.0 28.6----
2024-02-22 06:24 pmENE 31.1 35.0----29.73- -8.0 28.6----
2024-02-22 06:18 pmENE 31.1 36.9----29.72- -8.0-----
2024-02-22 06:12 pmENE 29.9 35.0----29.72- -8.0 28.6----
2024-02-22 06:06 pmENE 31.1 33.0----29.72- -8.0 28.6----
2024-02-22 06:00 pmENE 33.0 35.9----29.72+0.04 -8.0 28.6----
2024-02-22 05:54 pmENE 33.0 35.9----29.72- -8.1 28.6----
2024-02-22 05:48 pmENE 32.1 35.0----29.71- -8.1 28.6----
2024-02-22 05:42 pmENE 29.9 34.0----29.72- -8.1 28.6----
2024-02-22 05:36 pmENE 33.0 35.9----29.71- -8.1 28.6----
2024-02-22 05:30 pmENE 32.1 34.0----29.71- -8.1 28.6----
2024-02-22 05:24 pmENE 29.9 34.0----29.71- -8.0 28.6----
2024-02-22 05:18 pmENE 32.1 36.9------ -8.0-----
2024-02-22 05:12 pmENE 32.1 35.9----29.71- -8.0 28.6----
2024-02-22 05:06 pmENE 29.9 33.0----29.71- -8.0 28.6----
2024-02-22 05:00 pmENE 32.1 34.0----29.71+0.04 -7.8 28.6----
2024-02-22 04:54 pmENE 31.1 34.0----29.70- -8.0 28.6----